DW5914 Weather Reports


Display with metric or nautical units.
time (UTC)temp
F
wind
direction
speed
MPH
gust
MPH
rain 1hr
in
rain 24hr
in
rain mn
in
humidity
%
barometer
mb
20260505124603 50 167 2.0 8.0 0.00 0.00 0.00 92 1015.7
20260505123112 50 173 3.0 8.0 0.00 0.00 0.00 92 1015.6
20260505121552 50 290 2.0 8.0 0.00 0.00 0.00 92 1015.4
20260505120059 50 227 4.0 10.0 0.00 0.00 0.00 92 1015.3
20260505114551 50 165 2.0 6.0 0.00 0.00 0.00 91 1015.1
20260505113051 50 184 4.0 8.0 0.00 0.00 0.00 91 1015.0
20260505111545 51 173 2.0 8.0 0.00 0.00 0.00 91 1014.8
20260505101536 51 215 3.0 8.0 0.00 0.00 0.00 90 1014.4
20260505100033 51 175 3.0 7.0 0.00 0.00 0.00 89 1014.3
20260505094530 51 192 3.0 6.0 0.00 0.00 0.00 89 1014.2
20260505093027 52 135 2.0 8.0 0.00 0.00 0.00 88 1014.0
20260505091525 52 207 4.0 11.0 0.00 0.00 0.00 87 1013.9
20260505090024 52 195 4.0 11.0 0.00 0.00 0.00 86 1013.7
20260505084531 53 162 3.0 10.0 0.00 0.00 0.00 85 1013.6
20260505083033 54 177 3.0 13.0 0.00 0.00 0.00 84 1013.5
20260505081517 53 136 4.0 15.0 0.00 0.00 0.00 85 1013.2
20260505080025 53 178 4.0 14.0 0.00 0.00 0.00 86 1013.0
20260505074516 53 161 4.0 18.0 0.00 0.00 0.00 86 1012.9
20260505073022 53 208 3.0 10.0 0.00 0.00 0.00 85 1012.7
20260505071506 53 186 5.0 12.0 0.00 0.00 0.00 84 1012.5
20260505070004 54 173 4.0 10.0 0.00 0.00 0.00 84 1012.3
20260505064501 54 255 0.0 9.0 0.00 0.00 0.00 83 1012.3
20260505063102 54 162 0.0 5.0 0.00 0.00 0.00 81 1012.0
20260505061608 55 209 1.0 5.0 0.00 0.00 0.00 80 1011.9
20260505060105 55 207 0.0 7.0 0.00 0.00 0.00 80 1011.7
20260505054607 56 192 3.0 10.0 0.00 0.00 0.00 79 1011.6
20260505053103 56 207 2.0 6.0 0.00 0.00 0.00 79 1011.4
20260505051558 56 171 4.0 8.0 0.00 0.00 0.00 77 1011.2
20260505041604 58 186 3.0 11.0 0.00 0.00 0.00 76 1010.6
20260505040058 59 188 3.0 8.0 0.00 0.00 0.00 75 1010.4
20260505034556 59 189 5.0 11.0 0.00 0.00 0.00 75 1010.1
20260505033056 60 200 2.0 8.0 0.00 0.00 0.00 73 1009.9
20260505031555 61 172 3.0 8.0 0.00 0.00 0.00 72 1009.9
20260505030111 62 208 3.0 9.0 0.00 0.00 0.00 71 1009.7
20260505024559 63 209 5.0 10.0 0.00 0.00 0.00 70 1009.6
20260505023054 63 196 3.0 8.0 0.00 0.00 0.00 69 1009.7
20260505021552 64 199 4.0 8.0 0.00 0.00 0.00 68 1009.6
20260505020054 65 215 5.0 9.0 0.00 0.00 0.00 66 1009.7
20260505014607 68 163 3.0 8.0 0.00 0.00 0.00 60 1009.7
20260505013054 71 147 4.0 8.0 0.00 0.00 0.00 51 1009.8
20260505011553 72 178 3.0 8.0 0.00 0.00 0.00 48 1009.8
20260505010058 71 179 3.0 9.0 0.00 0.00 0.00 47 1009.8
20260505004551 71 202 5.0 12.0 0.00 0.00 0.00 48 1009.9
20260505003056 71 179 4.0 10.0 0.00 0.00 0.00 49 1010.0
20260505001546 71 182 3.0 11.0 0.00 0.00 0.00 51 1010.1
20260505000048 71 146 4.0 10.0 0.00 0.00 0.00 49 1010.2
20260504234546 72 177 4.0 9.0 0.00 0.00 0.00 50 1010.2
20260504233045 73 217 3.0 7.0 0.00 0.00 0.00 50 1010.3
20260504231541 72 177 5.0 9.0 0.00 0.00 0.00 50 1010.4
20260504230039 73 204 3.0 7.0 0.00 0.00 0.00 49 1010.5
20260504224537 75 199 3.0 7.0 0.00 0.00 0.00 49 1010.6
20260504223050 74 301 1.0 5.0 0.00 0.00 0.00 53 1010.6
20260504221531 72 355 2.0 5.0 0.00 0.00 0.00 55 1010.7
20260504220032 73 336 2.0 4.0 0.00 0.00 0.00 54 1010.8
20260504214526 71 340 3.0 4.0 0.00 0.00 0.00 58 1011.0
20260504213028 69 345 3.0 4.0 0.00 0.00 0.00 58 1011.1
20260504211534 70 334 2.0 4.0 0.00 0.00 0.00 57 1011.2
20260504210022 70 328 2.0 4.0 0.00 0.00 0.00 59 1011.2
20260504204521 69 59 3.0 5.0 0.00 0.00 0.00 60 1011.4
20260504203020 69 351 2.0 5.0 0.00 0.00 0.00 60 1011.5
20260504201517 69 331 1.0 5.0 0.00 0.00 0.00 61 1011.7
20260504200018 67 325 2.0 5.0 0.00 0.00 0.00 63 1011.8
20260504194514 68 341 1.0 5.0 0.00 0.00 0.00 62 1011.8
20260504193012 67 341 1.0 5.0 0.00 0.00 0.00 63 1011.7
20260504191511 67 9 4.0 6.0 0.00 0.00 0.00 61 1011.9
20260504190009 66 323 2.0 4.0 0.00 0.00 0.00 64 1011.9
20260504184508 67 329 2.0 4.0 0.00 0.00 0.00 62 1011.9
20260504183009 64 70 2.0 5.0 0.00 0.00 0.00 66 1012.0
20260504181505 64 21 3.0 5.0 0.00 0.00 0.00 68 1012.0
20260504180002 63 46 2.0 4.0 0.00 0.00 0.00 70 1012.0
20260504174501 64 49 3.0 5.0 0.00 0.00 0.00 67 1012.1
20260504173100 64 47 3.0 5.0 0.00 0.00 0.00 66 1012.1
20260504171558 63 51 2.0 5.0 0.00 0.00 0.00 68 1012.2